TimeEST,TemperatureF,Dew PointF,Humidity,Sea Level PressureIn,VisibilityMPH,Wind Direction,Wind SpeedMPH,Gust SpeedMPH,PrecipitationIn,Events,Conditions,WindDirDegrees,DateUTC
12:14 AM,60.4,56.7,87,29.83,10.0,SSW,17.3,20.7,N/A,,Overcast,200,2012-12-04 05:14:00
12:35 AM,61.7,56.5,83,29.83,10.0,SSW,18.4,25.3,N/A,,Overcast,200,2012-12-04 05:35:00
12:54 AM,62.1,56.5,82,29.83,10.0,SSW,20.7,25.3,N/A,,Overcast,210,2012-12-04 05:54:00
1:14 AM,62.1,55.9,80,29.82,10.0,SSW,20.7,28.8,N/A,,Overcast,200,2012-12-04 06:14:00
1:35 AM,62.2,55.8,79,29.82,10.0,SSW,18.4,24.2,N/A,,Overcast,210,2012-12-04 06:35:00
1:54 AM,62.2,55.6,79,29.82,10.0,SSW,15.0,32.2,N/A,,Overcast,210,2012-12-04 06:54:00
2:14 AM,61.7,55.4,80,29.82,10.0,SSW,18.4,27.6,N/A,,Overcast,210,2012-12-04 07:14:00
2:35 AM,61.7,55.4,80,29.82,10.0,SSW,20.7,27.6,N/A,,Overcast,210,2012-12-04 07:35:00
2:54 AM,62.2,55.6,79,29.82,10.0,SSW,18.4,26.5,N/A,,Overcast,210,2012-12-04 07:54:00
3:14 AM,62.6,55.8,78,29.83,10.0,SW,16.1,21.9,N/A,,Overcast,220,2012-12-04 08:14:00
3:54 AM,62.6,55.9,79,29.83,10.0,SW,16.1,28.8,N/A,,Overcast,230,2012-12-04 08:54:00
4:15 AM,61.9,56.3,82,29.82,10.0,SW,17.3,24.2,N/A,,Overcast,230,2012-12-04 09:15:00
4:35 AM,61.7,56.3,82,29.83,10.0,SW,15.0,23.0,N/A,,Overcast,230,2012-12-04 09:35:00
4:54 AM,60.4,56.5,87,29.84,10.0,WSW,15.0,25.3,N/A,Rain,Light Rain,240,2012-12-04 09:54:00
5:15 AM,59.9,56.5,88,29.84,7.0,SW,16.1,23.0,N/A,,Drizzle,230,2012-12-04 10:15:00
5:35 AM,59.5,56.3,89,29.84,10.0,WSW,15.0,19.6,N/A,,Overcast,250,2012-12-04 10:35:00
5:54 AM,58.5,56.3,93,29.85,4.0,WSW,15.0,20.7,N/A,,Heavy Drizzle,250,2012-12-04 10:54:00
6:15 AM,56.5,54.3,92,29.86,7.0,West,11.5,-,N/A,,Drizzle,280,2012-12-04 11:15:00
6:35 AM,55.4,52.7,91,29.87,10.0,West,10.4,-,N/A,,Overcast,280,2012-12-04 11:35:00
7:15 AM,53.2,49.5,87,29.89,10.0,West,8.1,-,N/A,,Scattered Clouds,280,2012-12-04 12:15:00
7:35 AM,52.0,48.2,87,29.89,10.0,West,6.9,-,N/A,,Mostly Cloudy,280,2012-12-04 12:35:00
7:54 AM,51.4,47.3,86,29.90,10.0,West,13.8,17.3,N/A,,Mostly Cloudy,280,2012-12-04 12:54:00
8:15 AM,50.7,45.5,82,29.91,10.0,WNW,12.7,-,N/A,,Overcast,290,2012-12-04 13:15:00
8:34 AM,50.0,44.8,82,29.93,10.0,West,11.5,-,N/A,,Overcast,260,2012-12-04 13:34:00
8:54 AM,49.6,45.1,84,29.93,10.0,West,10.4,-,N/A,Rain,Light Rain,260,2012-12-04 13:54:00
9:15 AM,49.3,45.0,85,29.94,10.0,West,12.7,18.4,N/A,,Overcast,270,2012-12-04 14:15:00
9:34 AM,49.1,44.4,84,29.94,10.0,West,12.7,18.4,N/A,,Mostly Cloudy,270,2012-12-04 14:34:00
9:55 AM,49.1,43.0,79,29.94,10.0,West,12.7,17.3,N/A,,Scattered Clouds,270,2012-12-04 14:55:00
10:15 AM,49.3,42.3,77,29.94,10.0,West,11.5,16.1,N/A,,Scattered Clouds,260,2012-12-04 15:15:00
10:34 AM,48.7,41.5,76,29.93,10.0,West,11.5,-,N/A,,Overcast,260,2012-12-04 15:34:00
10:55 AM,48.6,41.0,75,29.93,10.0,West,10.4,18.4,N/A,,Overcast,270,2012-12-04 15:55:00
11:14 AM,48.4,40.1,73,29.93,10.0,West,11.5,-,N/A,,Overcast,260,2012-12-04 16:14:00
11:34 AM,48.2,40.1,74,29.93,10.0,WSW,13.8,17.3,N/A,,Overcast,250,2012-12-04 16:34:00
11:55 AM,48.6,39.2,70,29.92,10.0,West,11.5,16.1,N/A,,Overcast,260,2012-12-04 16:55:00
12:14 PM,48.2,38.1,68,29.91,10.0,WSW,12.7,17.3,N/A,,Mostly Cloudy,250,2012-12-04 17:14:00
12:34 PM,48.2,37.9,68,29.91,10.0,WSW,12.7,-,N/A,,Scattered Clouds,250,2012-12-04 17:34:00
1:14 PM,48.4,39.9,73,29.92,10.0,WSW,12.7,-,N/A,,Clear,250,2012-12-04 18:14:00
1:35 PM,48.2,39.7,73,29.92,10.0,West,11.5,-,N/A,,Clear,260,2012-12-04 18:35:00
1:55 PM,48.2,38.1,68,29.92,10.0,West,15.0,19.6,N/A,,Clear,260,2012-12-04 18:55:00
2:14 PM,48.4,38.1,68,29.92,10.0,WSW,10.4,-,N/A,,Clear,250,2012-12-04 19:14:00
2:35 PM,48.7,39.7,71,29.92,10.0,WSW,8.1,16.1,N/A,,Clear,250,2012-12-04 19:35:00
2:55 PM,49.1,40.1,71,29.92,10.0,WSW,11.5,16.1,N/A,,Clear,250,2012-12-04 19:55:00
3:14 PM,49.6,39.2,67,29.92,10.0,WSW,12.7,18.4,N/A,,Clear,250,2012-12-04 20:14:00
3:35 PM,48.7,39.2,70,29.92,10.0,WSW,12.7,-,N/A,,Clear,240,2012-12-04 20:35:00
3:55 PM,48.4,38.7,69,29.92,10.0,WSW,13.8,-,N/A,,Clear,240,2012-12-04 20:55:00
4:14 PM,47.5,38.5,71,29.93,10.0,WSW,12.7,-,N/A,,Clear,250,2012-12-04 21:14:00
4:35 PM,47.3,38.3,71,29.93,10.0,WSW,10.4,-,N/A,,Clear,240,2012-12-04 21:35:00
4:55 PM,46.6,37.4,70,29.94,10.0,WSW,10.4,-,N/A,,Clear,240,2012-12-04 21:55:00
5:14 PM,45.9,37.0,71,29.94,10.0,WSW,8.1,-,N/A,,Clear,250,2012-12-04 22:14:00
5:35 PM,45.9,37.4,72,29.94,10.0,WSW,9.2,-,N/A,,Clear,240,2012-12-04 22:35:00
5:55 PM,44.8,36.7,73,29.94,10.0,WSW,9.2,-,N/A,,Clear,250,2012-12-04 22:55:00
6:14 PM,44.8,35.8,71,29.95,10.0,WSW,11.5,-,N/A,,Clear,250,2012-12-04 23:14:00
6:35 PM,44.6,34.7,68,29.96,10.0,WSW,11.5,17.3,N/A,,Clear,250,2012-12-04 23:35:00
6:55 PM,44.1,34.7,70,29.96,10.0,West,9.2,17.3,N/A,,Clear,260,2012-12-04 23:55:00
7:14 PM,44.1,34.5,69,29.97,10.0,WSW,12.7,19.6,N/A,,Clear,250,2012-12-05 00:14:00
7:35 PM,43.2,34.7,72,29.98,10.0,West,9.2,-,N/A,,Clear,270,2012-12-05 00:35:00
7:55 PM,42.3,34.2,73,29.98,10.0,West,11.5,-,N/A,,Clear,270,2012-12-05 00:55:00
8:15 PM,42.3,33.1,70,29.99,10.0,West,10.4,-,N/A,,Clear,280,2012-12-05 01:15:00
8:35 PM,41.9,32.4,69,30.00,10.0,West,11.5,16.1,N/A,,Clear,280,2012-12-05 01:35:00
8:55 PM,41.4,32.2,70,30.00,10.0,West,10.4,-,N/A,,Scattered Clouds,280,2012-12-05 01:55:00
9:15 PM,41.0,32.0,70,30.00,10.0,West,10.4,-,N/A,,Scattered Clouds,280,2012-12-05 02:15:00
9:35 PM,41.2,31.8,69,30.02,10.0,WNW,13.8,19.6,N/A,,Clear,300,2012-12-05 02:35:00
9:55 PM,40.5,31.1,69,30.02,10.0,WNW,11.5,-,N/A,,Clear,290,2012-12-05 02:55:00
10:15 PM,40.1,30.2,68,30.04,10.0,WNW,10.4,17.3,N/A,,Clear,290,2012-12-05 03:15:00
10:34 PM,39.2,30.0,70,30.04,10.0,WNW,8.1,-,N/A,,Clear,290,2012-12-05 03:34:00
10:54 PM,38.5,31.1,75,30.05,10.0,WNW,10.4,18.4,N/A,,Scattered Clouds,300,2012-12-05 03:54:00
11:15 PM,39.6,30.0,69,30.06,10.0,NW,10.4,-,N/A,,Overcast,310,2012-12-05 04:15:00
11:34 PM,39.2,29.3,68,30.07,10.0,WNW,10.4,-,N/A,,Overcast,300,2012-12-05 04:34:00
11:54 PM,38.7,30.2,72,30.08,10.0,NW,15.0,-,N/A,,Overcast,320,2012-12-05 04:54:00